| time (UTC) | temp C | wind direction | speed KPH | gust KPH | rain 1hr cm | rain 24hr cm | rain mn cm | humidity % | barometer mb |
| 20260906203504 | 32 | 134 | 11.3 | 29.0 | 0.00 | 0.25 | 0.25 | 46 | 1017.6 |
| 20260906203006 | 32 | 67 | 11.3 | 22.5 | 0.00 | 0.25 | 0.25 | 46 | 1017.6 |
| 20260906202458 | 32 | 158 | 11.3 | 30.6 | 0.00 | 0.25 | 0.25 | 46 | 1017.7 |
| 20260906201929 | 32 | 167 | 11.3 | 25.7 | 0.00 | 0.25 | 0.25 | 46 | 1017.6 |
| 20260906201402 | 32 | 153 | 11.3 | 27.4 | 0.00 | 0.25 | 0.25 | 46 | 1017.7 |
| 20260906200859 | 32 | 183 | 11.3 | 27.4 | 0.00 | 0.25 | 0.25 | 46 | 1017.7 |
| 20260906200344 | 32 | 133 | 12.9 | 30.6 | 0.00 | 0.25 | 0.25 | 47 | 1017.7 |
| 20260906195846 | 32 | 156 | 12.9 | 30.6 | 0.00 | 0.25 | 0.25 | 46 | 1017.8 |
| 20260906195534 | 32 | 132 | 11.3 | 29.0 | 0.00 | 0.25 | 0.25 | 46 | 1017.8 |
| 20260906195423 | 32 | 132 | 11.3 | 29.0 | 0.00 | 0.25 | 0.25 | 46 | 1017.8 |
| 20260906195036 | 32 | 149 | 11.3 | 25.7 | 0.00 | 0.25 | 0.25 | 44 | 1018.0 |
| 20260906194920 | 32 | 149 | 11.3 | 25.7 | 0.00 | 0.25 | 0.25 | 44 | 1018.0 |
| 20260906194313 | 32 | 195 | 11.3 | 27.4 | 0.00 | 0.25 | 0.25 | 46 | 1017.8 |
| 20260906194048 | 32 | 142 | 11.3 | 27.4 | 0.00 | 0.25 | 0.25 | 45 | 1018.0 |
| 20260906193913 | 32 | 142 | 11.3 | 27.4 | 0.00 | 0.25 | 0.25 | 45 | 1018.0 |
| 20260906193250 | 32 | 140 | 9.7 | 25.7 | 0.00 | 0.25 | 0.25 | 44 | 1018.1 |
| 20260906192727 | 32 | 202 | 9.7 | 25.7 | 0.00 | 0.25 | 0.25 | 43 | 1018.2 |
| 20260906192223 | 32 | 151 | 11.3 | 27.4 | 0.00 | 0.25 | 0.25 | 43 | 1018.2 |
| 20260906191720 | 32 | 166 | 11.3 | 30.6 | 0.00 | 0.25 | 0.25 | 43 | 1018.3 |
| 20260906191148 | 33 | 130 | 9.7 | 30.6 | 0.00 | 0.25 | 0.25 | 43 | 1018.1 |
| 20260906190639 | 32 | 165 | 8.0 | 30.6 | 0.00 | 0.25 | 0.25 | 43 | 1018.2 |
| 20260906190416 | 32 | 195 | 9.7 | 30.6 | 0.00 | 0.25 | 0.25 | 45 | 1018.3 |
| 20260906190251 | 32 | 195 | 9.7 | 30.6 | 0.00 | 0.25 | 0.25 | 45 | 1018.3 |
| 20260906185609 | 32 | 161 | 9.7 | 22.5 | 0.00 | 0.25 | 0.25 | 46 | 1018.4 |
| 20260906185047 | 32 | 138 | 9.7 | 24.1 | 0.00 | 0.25 | 0.25 | 47 | 1018.4 |
| 20260906184523 | 32 | 180 | 9.7 | 25.7 | 0.00 | 0.25 | 0.25 | 48 | 1018.7 |
| 20260906184018 | 32 | 105 | 8.0 | 25.7 | 0.00 | 0.25 | 0.25 | 47 | 1018.4 |
| 20260906183507 | 31 | 122 | 8.0 | 24.1 | 0.00 | 0.25 | 0.25 | 48 | 1018.4 |
| 20260906183333 | 31 | 144 | 9.7 | 27.4 | 0.00 | 0.25 | 0.25 | 51 | 1018.6 |
| 20260906183253 | 31 | 144 | 9.7 | 27.4 | 0.00 | 0.25 | 0.25 | 51 | 1018.6 |
| 20260906182725 | 31 | 0 | 11.3 | 27.4 | 0.00 | 0.25 | 0.25 | 50 | 1018.6 |
| 20260906182610 | 31 | 0 | 11.3 | 27.4 | 0.00 | 0.25 | 0.25 | 50 | 1018.6 |
| 20260906181943 | 31 | 0 | 11.3 | 27.4 | 0.00 | 0.25 | 0.25 | 51 | 1018.7 |
| 20260906181419 | 30 | 0 | 9.7 | 27.4 | 0.00 | 0.25 | 0.25 | 51 | 1018.8 |
| 20260906180900 | 30 | 0 | 9.7 | 22.5 | 0.00 | 0.25 | 0.25 | 52 | 1018.9 |
| 20260906180344 | 30 | 0 | 9.7 | 22.5 | 0.00 | 0.25 | 0.25 | 53 | 1019.0 |
| 20260906175841 | 30 | 0 | 9.7 | 22.5 | 0.00 | 0.25 | 0.25 | 54 | 1019.1 |
| 20260906175342 | 30 | 0 | 9.7 | 22.5 | 0.00 | 0.25 | 0.25 | 54 | 1019.1 |
| 20260906174942 | 29 | 0 | 9.7 | 25.7 | 0.00 | 0.25 | 0.25 | 56 | 1019.3 |
| 20260906174834 | 29 | 0 | 9.7 | 25.7 | 0.00 | 0.25 | 0.25 | 56 | 1019.2 |
| 20260906174620 | 29 | 0 | 9.7 | 25.7 | 0.00 | 0.25 | 0.25 | 56 | 1019.3 |
| 20260906173821 | 29 | 0 | 8.0 | 20.9 | 0.00 | 0.25 | 0.25 | 56 | 1019.4 |
| 20260906173315 | 28 | 0 | 9.7 | 22.5 | 0.00 | 0.25 | 0.25 | 57 | 1019.5 |
| 20260906172810 | 28 | 0 | 9.7 | 22.5 | 0.00 | 0.25 | 0.25 | 59 | 1019.7 |
| 20260906172308 | 28 | 0 | 8.0 | 25.7 | 0.00 | 0.25 | 0.25 | 60 | 1019.7 |
| 20260906171808 | 27 | 0 | 8.0 | 27.4 | 0.00 | 0.25 | 0.25 | 62 | 1019.8 |
| 20260906171310 | 27 | 0 | 11.3 | 27.4 | 0.00 | 0.25 | 0.25 | 63 | 1019.9 |
| 20260906171252 | 27 | 0 | 12.9 | 33.8 | 0.00 | 0.25 | 0.25 | 64 | 1020.0 |
| 20260906170905 | 27 | 0 | 12.9 | 33.8 | 0.00 | 0.25 | 0.25 | 64 | 1020.0 |
| 20260906170259 | 27 | 0 | 11.3 | 33.8 | 0.00 | 0.25 | 0.25 | 65 | 1020.1 |
| 20260906165747 | 26 | 0 | 11.3 | 20.9 | 0.00 | 0.25 | 0.25 | 67 | 1020.2 |
| 20260906165225 | 26 | 0 | 12.9 | 24.1 | 0.00 | 0.25 | 0.25 | 68 | 1020.4 |
| 20260906164934 | 26 | 0 | 11.3 | 22.5 | 0.00 | 0.25 | 0.25 | 69 | 1020.5 |
| 20260906164817 | 26 | 0 | 11.3 | 22.5 | 0.00 | 0.25 | 0.25 | 69 | 1020.5 |
| 20260906164159 | 26 | 0 | 9.7 | 22.5 | 0.00 | 0.25 | 0.25 | 70 | 1020.5 |
| 20260906163646 | 25 | 0 | 11.3 | 25.7 | 0.00 | 0.25 | 0.25 | 72 | 1020.6 |
| 20260906163132 | 25 | 0 | 12.9 | 25.7 | 0.00 | 0.25 | 0.25 | 73 | 1020.6 |
| 20260906162632 | 25 | 0 | 12.9 | 30.6 | 0.00 | 0.25 | 0.25 | 73 | 1020.6 |
| 20260906162353 | 25 | 0 | 11.3 | 30.6 | 0.00 | 0.25 | 0.25 | 75 | 1020.6 |
| 20260906162233 | 25 | 0 | 11.3 | 30.6 | 0.00 | 0.25 | 0.25 | 75 | 1020.6 |
| 20260906161629 | 25 | 0 | 12.9 | 24.1 | 0.00 | 0.25 | 0.25 | 78 | 1020.5 |
| 20260906161121 | 24 | 0 | 16.1 | 27.4 | 0.00 | 0.25 | 0.25 | 79 | 1020.5 |
| 20260906160632 | 24 | 0 | 16.1 | 27.4 | 0.00 | 0.25 | 0.25 | 79 | 1020.6 |
| 20260906160115 | 23 | 0 | 16.1 | 29.0 | 0.00 | 0.25 | 0.25 | 79 | 1020.8 |
| 20260906160041 | 23 | 0 | 14.5 | 30.6 | 0.00 | 0.25 | 0.25 | 79 | 1020.8 |
| 20260906155656 | 23 | 0 | 14.5 | 30.6 | 0.00 | 0.25 | 0.25 | 79 | 1020.8 |
| 20260906155054 | 23 | 0 | 14.5 | 29.0 | 0.00 | 0.25 | 0.25 | 80 | 1020.6 |
| 20260906154743 | 23 | 0 | 16.1 | 29.0 | 0.00 | 0.25 | 0.25 | 81 | 1020.5 |
| 20260906154626 | 23 | 0 | 16.1 | 29.0 | 0.00 | 0.25 | 0.25 | 81 | 1020.5 |
| 20260906153955 | 23 | 0 | 16.1 | 29.0 | 0.00 | 0.25 | 0.25 | 81 | 1020.6 |
| 20260906153707 | 23 | 0 | 14.5 | 29.0 | 0.00 | 0.25 | 0.25 | 81 | 1020.8 |
| 20260906153546 | 23 | 0 | 14.5 | 29.0 | 0.00 | 0.25 | 0.25 | 81 | 1020.8 |
| 20260906152913 | 23 | 0 | 11.3 | 27.4 | 0.00 | 0.25 | 0.25 | 83 | 1020.8 |
| 20260906152354 | 23 | 0 | 11.3 | 27.4 | 0.00 | 0.25 | 0.25 | 82 | 1020.8 |
| 20260906151841 | 23 | 0 | 11.3 | 25.7 | 0.00 | 0.25 | 0.25 | 82 | 1020.8 |
| 20260906151316 | 23 | 0 | 12.9 | 27.4 | 0.00 | 0.25 | 0.25 | 83 | 1020.8 |
| 20260906150802 | 22 | 0 | 11.3 | 27.4 | 0.00 | 0.25 | 0.25 | 85 | 1020.8 |
| 20260906150529 | 22 | 0 | 9.7 | 24.1 | 0.00 | 0.25 | 0.25 | 87 | 1020.5 |
| 20260906150408 | 22 | 0 | 9.7 | 24.1 | 0.00 | 0.25 | 0.25 | 87 | 1020.5 |
| 20260906145759 | 22 | 0 | 9.7 | 24.1 | 0.00 | 0.25 | 0.25 | 89 | 1020.5 |
| 20260906145235 | 21 | 0 | 9.7 | 24.1 | 0.00 | 0.25 | 0.25 | 90 | 1020.5 |
| 20260906144724 | 21 | 0 | 9.7 | 20.9 | 0.00 | 0.25 | 0.25 | 91 | 1020.5 |
| 20260906144419 | 21 | 0 | 9.7 | 20.9 | 0.00 | 0.25 | 0.25 | 92 | 1020.5 |
| 20260906144301 | 21 | 0 | 9.7 | 20.9 | 0.00 | 0.25 | 0.25 | 92 | 1020.5 |
| 20260906143631 | 21 | 0 | 11.3 | 22.5 | 0.00 | 0.25 | 0.25 | 92 | 1020.4 |
| 20260906143126 | 21 | 0 | 11.3 | 27.4 | 0.00 | 0.25 | 0.25 | 93 | 1020.2 |
| 20260906142606 | 21 | 0 | 9.7 | 27.4 | 0.00 | 0.25 | 0.25 | 93 | 1020.2 |
| 20260906142431 | 20 | 0 | 9.7 | 24.1 | 0.00 | 0.25 | 0.25 | 94 | 1020.3 |
| 20260906142359 | 20 | 0 | 9.7 | 24.1 | 0.00 | 0.25 | 0.25 | 94 | 1020.3 |
| 20260906141600 | 20 | 0 | 11.3 | 24.1 | 0.00 | 0.25 | 0.25 | 94 | 1020.3 |
| 20260906141059 | 20 | 0 | 12.9 | 27.4 | 0.00 | 0.25 | 0.25 | 93 | 1020.4 |
| 20260906140934 | 20 | 0 | 11.3 | 27.4 | 0.00 | 0.25 | 0.25 | 93 | 1020.3 |
| 20260906140850 | 20 | 0 | 11.3 | 27.4 | 0.00 | 0.25 | 0.25 | 93 | 1020.3 |
| 20260906140109 | 20 | 0 | 11.3 | 27.4 | 0.00 | 0.25 | 0.25 | 93 | 1020.5 |
| 20260906135528 | 20 | 0 | 9.7 | 24.1 | 0.00 | 0.25 | 0.25 | 93 | 1020.5 |
| 20260906135002 | 20 | 0 | 9.7 | 17.7 | 0.00 | 0.25 | 0.25 | 93 | 1020.3 |
| 20260906134659 | 20 | 0 | 8.0 | 24.1 | 0.03 | 0.25 | 0.25 | 93 | 1020.5 |
| 20260906134544 | 20 | 0 | 8.0 | 24.1 | 0.03 | 0.25 | 0.25 | 93 | 1020.5 |
| 20260906133951 | 20 | 0 | 11.3 | 24.1 | 0.05 | 0.25 | 0.25 | 93 | 1020.1 |
| 20260906133930 | 20 | 0 | 9.7 | 24.1 | 0.03 | 0.25 | 0.25 | 93 | 1020.3 |
| 20260906133543 | 20 | 0 | 11.3 | 24.1 | 0.05 | 0.25 | 0.25 | 93 | 1020.1 |
| 20260906132923 | 20 | 0 | 11.3 | 24.1 | 0.10 | 0.25 | 0.25 | 93 | 1020.1 |
| 20260906132424 | 20 | 0 | 9.7 | 19.3 | 0.15 | 0.25 | 0.25 | 93 | 1020.0 |
| 20260906131906 | 20 | 0 | 6.4 | 17.7 | 0.23 | 0.25 | 0.25 | 93 | 1020.2 |
| 20260906131601 | 20 | 0 | 8.0 | 14.5 | 0.23 | 0.25 | 0.25 | 93 | 1020.0 |
| 20260906131431 | 20 | 0 | 8.0 | 14.5 | 0.23 | 0.25 | 0.25 | 93 | 1020.0 |
| 20260906130800 | 20 | 0 | 6.4 | 14.5 | 0.25 | 0.25 | 0.25 | 93 | 1019.8 |
| 20260906130250 | 20 | 0 | 4.8 | 9.7 | 0.25 | 0.25 | 0.25 | 93 | 1019.9 |
| 20260906125744 | 20 | 0 | 3.2 | 9.7 | 0.25 | 0.25 | 0.25 | 93 | 1019.9 |
| 20260906125239 | 20 | 0 | 3.2 | 17.7 | 0.25 | 0.25 | 0.25 | 93 | 1019.8 |
| 20260906124725 | 20 | 0 | 4.8 | 17.7 | 0.25 | 0.25 | 0.25 | 93 | 1019.7 |
| 20260906124222 | 20 | 0 | 8.0 | 17.7 | 0.23 | 0.23 | 0.23 | 93 | 1019.4 |
| 20260906123711 | 20 | 0 | 11.3 | 22.5 | 0.23 | 0.23 | 0.23 | 92 | 1019.2 |
| 20260906123206 | 20 | 0 | 11.3 | 22.5 | 0.20 | 0.20 | 0.20 | 92 | 1019.4 |
| 20260906122923 | 20 | 0 | 11.3 | 20.9 | 0.13 | 0.13 | 0.13 | 92 | 1019.4 |
| 20260906122809 | 20 | 0 | 11.3 | 20.9 | 0.13 | 0.13 | 0.13 | 92 | 1019.4 |
| 20260906122216 | 20 | 0 | 8.0 | 19.3 | 0.08 | 0.08 | 0.08 | 92 | 1019.5 |
| 20260906121705 | 20 | 0 | 4.8 | 9.7 | 0.03 | 0.03 | 0.03 | 92 | 1020.1 |
| 20260906121203 | 20 | 0 | 4.8 | 12.9 | 0.00 | 0.00 | 0.00 | 92 | 1020.0 |
| 20260906120638 | 20 | 0 | 4.8 | 12.9 | 0.00 | 0.00 | 0.00 | 92 | 1020.0 |
| 20260906120620 | 20 | 0 | 4.8 | 12.9 | 0.00 | 0.00 | 0.00 | 92 | 1020.1 |
| 20260906120223 | 20 | 0 | 4.8 | 12.9 | 0.00 | 0.00 | 0.00 | 92 | 1020.1 |
| 20260906115617 | 20 | 0 | 6.4 | 14.5 | 0.00 | 0.00 | 0.00 | 92 | 1020.2 |
| 20260906115409 | 20 | 0 | 6.4 | 14.5 | 0.00 | 0.00 | 0.00 | 92 | 1020.1 |
| 20260906114605 | 20 | 0 | 6.4 | 14.5 | 0.00 | 0.00 | 0.00 | 92 | 1020.1 |
| 20260906114101 | 20 | 0 | 8.0 | 16.1 | 0.00 | 0.00 | 0.00 | 91 | 1020.0 |
| 20260906113601 | 20 | 0 | 8.0 | 16.1 | 0.00 | 0.00 | 0.00 | 91 | 1019.9 |
| 20260906113257 | 20 | 0 | 6.4 | 16.1 | 0.00 | 0.00 | 0.00 | 91 | 1019.9 |
| 20260906113133 | 20 | 0 | 6.4 | 16.1 | 0.00 | 0.00 | 0.00 | 91 | 1019.9 |
| 20260906112505 | 20 | 0 | 4.8 | 14.5 | 0.00 | 0.00 | 0.00 | 91 | 1020.0 |
| 20260906111935 | 20 | 0 | 4.8 | 16.1 | 0.00 | 0.00 | 0.00 | 91 | 1020.0 |
| 20260906111414 | 20 | 0 | 4.8 | 16.1 | 0.00 | 0.00 | 0.00 | 91 | 1020.0 |
| 20260906110841 | 20 | 0 | 4.8 | 16.1 | 0.00 | 0.00 | 0.00 | 90 | 1020.0 |
| 20260906110314 | 20 | 0 | 6.4 | 16.1 | 0.00 | 0.00 | 0.00 | 90 | 1019.9 |
| 20260906110035 | 20 | 0 | 6.4 | 16.1 | 0.00 | 0.00 | 0.00 | 90 | 1019.9 |
| 20260906105920 | 20 | 0 | 6.4 | 16.1 | 0.00 | 0.00 | 0.00 | 90 | 1019.9 |
| 20260906105247 | 20 | 0 | 6.4 | 16.1 | 0.00 | 0.00 | 0.00 | 90 | 1019.9 |
| 20260906104948 | 20 | 0 | 4.8 | 14.5 | 0.00 | 0.00 | 0.00 | 89 | 1019.7 |
| 20260906104826 | 20 | 0 | 4.8 | 14.5 | 0.00 | 0.00 | 0.00 | 89 | 1019.7 |
| 20260906104156 | 20 | 0 | 4.8 | 12.9 | 0.00 | 0.00 | 0.00 | 89 | 1019.7 |
| 20260906103702 | 20 | 0 | 4.8 | 14.5 | 0.00 | 0.00 | 0.00 | 89 | 1019.4 |
| 20260906103151 | 20 | 0 | 4.8 | 14.5 | 0.00 | 0.00 | 0.00 | 88 | 1019.7 |
| 20260906102628 | 20 | 0 | 4.8 | 16.1 | 0.00 | 0.00 | 0.00 | 88 | 1019.5 |
| 20260906102102 | 20 | 0 | 6.4 | 20.9 | 0.00 | 0.00 | 0.00 | 88 | 1019.5 |
| 20260906101828 | 20 | 0 | 8.0 | 20.9 | 0.00 | 0.00 | 0.00 | 87 | 1019.5 |
| 20260906101705 | 20 | 0 | 8.0 | 20.9 | 0.00 | 0.00 | 0.00 | 87 | 1019.5 |
| 20260906101035 | 20 | 0 | 8.0 | 27.4 | 0.00 | 0.00 | 0.00 | 86 | 1019.3 |
| 20260906100538 | 21 | 0 | 11.3 | 30.6 | 0.00 | 0.00 | 0.00 | 84 | 1019.1 |
| 20260906100518 | 20 | 0 | 9.7 | 27.4 | 0.00 | 0.00 | 0.00 | 86 | 1019.1 |
| 20260906100126 | 21 | 0 | 11.3 | 30.6 | 0.00 | 0.00 | 0.00 | 84 | 1019.1 |
| 20260906095514 | 21 | 0 | 9.7 | 30.6 | 0.00 | 0.00 | 0.00 | 83 | 1019.0 |
| 20260906095015 | 21 | 0 | 9.7 | 22.5 | 0.00 | 0.00 | 0.00 | 81 | 1019.2 |
| 20260906094450 | 22 | 0 | 9.7 | 22.5 | 0.00 | 0.00 | 0.00 | 79 | 1019.0 |
| 20260906093949 | 22 | 0 | 6.4 | 22.5 | 0.00 | 0.00 | 0.00 | 77 | 1018.9 |
| 20260906093452 | 22 | 0 | 4.8 | 14.5 | 0.00 | 0.00 | 0.00 | 76 | 1018.9 |
| 20260906093148 | 23 | 0 | 4.8 | 9.7 | 0.00 | 0.00 | 0.00 | 76 | 1018.7 |
| 20260906093032 | 23 | 0 | 4.8 | 9.7 | 0.00 | 0.00 | 0.00 | 76 | 1018.7 |
| 20260906092428 | 23 | 0 | 6.4 | 17.7 | 0.00 | 0.00 | 0.00 | 74 | 1018.6 |
| 20260906091904 | 23 | 0 | 6.4 | 17.7 | 0.00 | 0.00 | 0.00 | 74 | 1018.6 |
| 20260906091620 | 23 | 0 | 3.2 | 8.0 | 0.00 | 0.00 | 0.00 | 72 | 1018.3 |
| 20260906091503 | 23 | 0 | 3.2 | 8.0 | 0.00 | 0.00 | 0.00 | 72 | 1018.3 |
| 20260906090857 | 23 | 0 | 3.2 | 6.4 | 0.00 | 0.00 | 0.00 | 71 | 1018.1 |
| 20260906090618 | 24 | 0 | 3.2 | 8.0 | 0.00 | 0.00 | 0.00 | 70 | 1018.0 |
| 20260906090503 | 24 | 0 | 3.2 | 8.0 | 0.00 | 0.00 | 0.00 | 70 | 1018.0 |
| 20260906085856 | 24 | 0 | 4.8 | 12.9 | 0.00 | 0.00 | 0.00 | 68 | 1017.9 |
| 20260906085354 | 24 | 0 | 4.8 | 12.9 | 0.00 | 0.00 | 0.00 | 68 | 1017.9 |
| 20260906084845 | 24 | 0 | 3.2 | 9.7 | 0.00 | 0.00 | 0.00 | 65 | 1017.8 |
| 20260906084619 | 24 | 0 | 3.2 | 8.0 | 0.00 | 0.00 | 0.00 | 65 | 1017.8 |
| 20260906084451 | 24 | 0 | 3.2 | 8.0 | 0.00 | 0.00 | 0.00 | 65 | 1017.8 |
| 20260906083845 | 24 | 0 | 1.6 | 9.7 | 0.00 | 0.00 | 0.00 | 65 | 1017.8 |
| 20260906083319 | 24 | 0 | 1.6 | 9.7 | 0.00 | 0.00 | 0.00 | 65 | 1017.7 |
| 20260906082812 | 24 | 0 | 3.2 | 6.4 | 0.00 | 0.00 | 0.00 | 65 | 1017.7 |
| 20260906082309 | 24 | 0 | 3.2 | 6.4 | 0.00 | 0.00 | 0.00 | 65 | 1017.7 |
| 20260906081806 | 24 | 0 | 1.6 | 6.4 | 0.00 | 0.00 | 0.00 | 64 | 1017.8 |
| 20260906081239 | 24 | 0 | 1.6 | 14.5 | 0.00 | 0.00 | 0.00 | 64 | 1017.8 |
| 20260906080715 | 25 | 0 | 3.2 | 12.9 | 0.00 | 0.00 | 0.00 | 64 | 1017.8 |
| 20260906080206 | 25 | 0 | 4.8 | 16.1 | 0.00 | 0.00 | 0.00 | 64 | 1017.8 |
| 20260906075705 | 25 | 0 | 4.8 | 8.0 | 0.00 | 0.00 | 0.00 | 63 | 1017.8 |
| 20260906075142 | 25 | 0 | 4.8 | 17.7 | 0.00 | 0.00 | 0.00 | 63 | 1017.9 |
| 20260906074848 | 25 | 0 | 4.8 | 12.9 | 0.00 | 0.00 | 0.00 | 63 | 1017.9 |
| 20260906074724 | 25 | 0 | 4.8 | 12.9 | 0.00 | 0.00 | 0.00 | 63 | 1017.9 |
| 20260906074054 | 25 | 0 | 4.8 | 12.9 | 0.00 | 0.00 | 0.00 | 62 | 1017.9 |
| 20260906073538 | 25 | 0 | 4.8 | 16.1 | 0.00 | 0.00 | 0.00 | 62 | 1018.0 |
| 20260906073010 | 25 | 0 | 4.8 | 16.1 | 0.00 | 0.00 | 0.00 | 62 | 1018.0 |
| 20260906072454 | 25 | 0 | 4.8 | 16.1 | 0.00 | 0.00 | 0.00 | 61 | 1017.9 |
| 20260906071426 | 25 | 0 | 4.8 | 17.7 | 0.00 | 0.00 | 0.00 | 61 | 1018.0 |
| 20260906070913 | 25 | 0 | 6.4 | 17.7 | 0.00 | 0.00 | 0.00 | 61 | 1017.9 |
| 20260906070411 | 25 | 0 | 4.8 | 16.1 | 0.00 | 0.00 | 0.00 | 61 | 1017.9 |
| 20260906065909 | 25 | 0 | 3.2 | 9.7 | 0.00 | 0.00 | 0.00 | 61 | 1018.0 |
| 20260906065411 | 25 | 0 | 4.8 | 9.7 | 0.00 | 0.00 | 0.00 | 61 | 1018.0 |
| 20260906064910 | 25 | 0 | 3.2 | 12.9 | 0.00 | 0.00 | 0.00 | 61 | 1018.1 |
| 20260906064339 | 25 | 0 | 4.8 | 12.9 | 0.00 | 0.00 | 0.00 | 61 | 1018.1 |
| 20260906063813 | 25 | 0 | 4.8 | 12.9 | 0.00 | 0.00 | 0.00 | 61 | 1018.1 |
| 20260906063254 | 25 | 0 | 4.8 | 12.9 | 0.00 | 0.00 | 0.00 | 61 | 1018.3 |
| 20260906062751 | 25 | 0 | 4.8 | 14.5 | 0.00 | 0.00 | 0.00 | 61 | 1018.3 |
| 20260906062225 | 25 | 0 | 4.8 | 14.5 | 0.00 | 0.00 | 0.00 | 62 | 1018.3 |
| 20260906061723 | 25 | 0 | 4.8 | 12.9 | 0.00 | 0.00 | 0.00 | 62 | 1018.4 |
| 20260906061219 | 25 | 0 | 4.8 | 12.9 | 0.00 | 0.00 | 0.00 | 62 | 1018.3 |
| 20260906060706 | 25 | 0 | 3.2 | 9.7 | 0.00 | 0.00 | 0.00 | 62 | 1018.2 |
| 20260906060202 | 25 | 0 | 4.8 | 12.9 | 0.00 | 0.00 | 0.00 | 62 | 1018.2 |
| 20260906055901 | 25 | 0 | 4.8 | 12.9 | 0.00 | 0.00 | 0.00 | 62 | 1018.2 |
| 20260906055741 | 25 | 0 | 4.8 | 12.9 | 0.00 | 0.00 | 0.00 | 62 | 1018.2 |
| 20260906055107 | 25 | 0 | 4.8 | 12.9 | 0.00 | 0.00 | 0.00 | 63 | 1018.3 |
| 20260906054602 | 25 | 0 | 3.2 | 12.9 | 0.00 | 0.00 | 0.00 | 62 | 1018.3 |
| 20260906054059 | 25 | 0 | 3.2 | 9.7 | 0.00 | 0.00 | 0.00 | 62 | 1018.0 |
| 20260906053556 | 25 | 0 | 3.2 | 6.4 | 0.00 | 0.00 | 0.00 | 62 | 1018.0 |
| 20260906053029 | 25 | 0 | 3.2 | 14.5 | 0.00 | 0.00 | 0.00 | 62 | 1018.0 |
| 20260906052530 | 25 | 0 | 4.8 | 16.1 | 0.00 | 0.00 | 0.00 | 62 | 1018.0 |
| 20260906052251 | 25 | 0 | 4.8 | 16.1 | 0.00 | 0.00 | 0.00 | 62 | 1018.0 |
| 20260906052134 | 25 | 0 | 4.8 | 16.1 | 0.00 | 0.00 | 0.00 | 62 | 1018.0 |
| 20260906051543 | 25 | 0 | 4.8 | 16.1 | 0.00 | 0.00 | 0.00 | 62 | 1017.8 |
| 20260906051011 | 25 | 0 | 4.8 | 16.1 | 0.00 | 0.00 | 0.00 | 61 | 1017.8 |
| 20260906050836 | 25 | 0 | 4.8 | 14.5 | 0.00 | 0.00 | 0.00 | 60 | 1017.9 |
| 20260906050758 | 25 | 0 | 4.8 | 14.5 | 0.00 | 0.00 | 0.00 | 60 | 1017.9 |
| 20260906045935 | 26 | 0 | 4.8 | 12.9 | 0.00 | 0.00 | 0.00 | 60 | 1018.0 |
| 20260906045424 | 26 | 0 | 4.8 | 12.9 | 0.00 | 0.00 | 0.00 | 60 | 1018.0 |
| 20260906044917 | 26 | 0 | 4.8 | 8.0 | 0.00 | 0.00 | 0.00 | 59 | 1017.9 |
| 20260906044416 | 26 | 0 | 4.8 | 9.7 | 0.00 | 0.00 | 0.00 | 59 | 1017.9 |
| 20260906044113 | 26 | 0 | 4.8 | 9.7 | 0.00 | 0.00 | 0.00 | 59 | 1017.9 |
| 20260906043954 | 26 | 0 | 4.8 | 9.7 | 0.00 | 0.00 | 0.00 | 59 | 1017.9 |
| 20260906043603 | 26 | 0 | 3.2 | 8.0 | 0.00 | 0.00 | 0.00 | 58 | 1018.0 |
| 20260906043449 | 26 | 0 | 3.2 | 8.0 | 0.00 | 0.00 | 0.00 | 58 | 1018.0 |
| 20260906043037 | 26 | 0 | 3.2 | 9.7 | 0.00 | 0.00 | 0.00 | 58 | 1018.0 |
| 20260906042924 | 26 | 0 | 3.2 | 9.7 | 0.00 | 0.00 | 0.00 | 58 | 1018.0 |
| 20260906042519 | 26 | 0 | 4.8 | 12.9 | 0.00 | 0.00 | 0.00 | 58 | 1018.0 |
| 20260906042358 | 26 | 0 | 4.8 | 12.9 | 0.00 | 0.00 | 0.00 | 58 | 1018.0 |
| 20260906041737 | 26 | 0 | 3.2 | 12.9 | 0.00 | 0.00 | 0.00 | 58 | 1017.9 |
| 20260906041647 | 26 | 0 | 3.2 | 12.9 | 0.00 | 0.00 | 0.00 | 58 | 1017.8 |
| 20260906041316 | 26 | 0 | 3.2 | 12.9 | 0.00 | 0.00 | 0.00 | 58 | 1017.8 |
| 20260906040709 | 26 | 0 | 3.2 | 12.9 | 0.00 | 0.00 | 0.00 | 58 | 1017.8 |
| 20260906040142 | 26 | 0 | 4.8 | 9.7 | 0.00 | 0.00 | 0.00 | 58 | 1017.9 |
| 20260906035639 | 26 | 0 | 4.8 | 12.9 | 0.00 | 0.00 | 0.00 | 58 | 1017.9 |
| 20260906035140 | 26 | 0 | 4.8 | 12.9 | 0.00 | 0.00 | 0.00 | 58 | 1017.8 |
| 20260906034636 | 26 | 0 | 4.8 | 12.9 | 0.00 | 0.00 | 0.00 | 58 | 1017.7 |
| 20260906034112 | 26 | 0 | 4.8 | 12.9 | 0.00 | 0.00 | 0.00 | 58 | 1017.8 |
| 20260906033605 | 26 | 0 | 4.8 | 12.9 | 0.00 | 0.00 | 0.00 | 57 | 1017.8 |
| 20260906033108 | 26 | 0 | 4.8 | 12.9 | 0.00 | 0.00 | 0.00 | 57 | 1017.9 |
| 20260906032535 | 26 | 0 | 4.8 | 14.5 | 0.00 | 0.00 | 0.00 | 57 | 1017.8 |
| 20260906032010 | 26 | 0 | 4.8 | 14.5 | 0.00 | 0.00 | 0.00 | 57 | 1017.9 |
| 20260906031506 | 26 | 0 | 4.8 | 12.9 | 0.00 | 0.00 | 0.00 | 56 | 1017.8 |
| 20260906030955 | 27 | 0 | 4.8 | 9.7 | 0.00 | 0.00 | 0.00 | 56 | 1017.8 |
| 20260906030441 | 27 | 0 | 4.8 | 9.7 | 0.00 | 0.00 | 0.00 | 56 | 1017.8 |
| 20260906025934 | 27 | 0 | 4.8 | 12.9 | 0.00 | 0.00 | 0.00 | 55 | 1017.7 |
| 20260906025923 | 27 | 0 | 4.8 | 9.7 | 0.00 | 0.00 | 0.00 | 56 | 1017.8 |
| 20260906025819 | 27 | 0 | 4.8 | 12.9 | 0.00 | 0.00 | 0.00 | 55 | 1017.7 |
| 20260906024830 | 27 | 0 | 4.8 | 12.9 | 0.00 | 0.00 | 0.00 | 55 | 1017.7 |
| 20260906024304 | 27 | 0 | 6.4 | 12.9 | 0.00 | 0.00 | 0.00 | 55 | 1017.6 |
| 20260906023804 | 27 | 0 | 6.4 | 12.9 | 0.00 | 0.00 | 0.00 | 55 | 1017.4 |
| 20260906023235 | 27 | 0 | 6.4 | 14.5 | 0.00 | 0.00 | 0.00 | 55 | 1017.5 |
| 20260906022714 | 27 | 0 | 6.4 | 14.5 | 0.00 | 0.00 | 0.00 | 55 | 1017.5 |
| 20260906022435 | 28 | 0 | 6.4 | 17.7 | 0.00 | 0.00 | 0.00 | 55 | 1017.5 |
| 20260906022320 | 28 | 0 | 6.4 | 17.7 | 0.00 | 0.00 | 0.00 | 55 | 1017.5 |
| 20260906021712 | 28 | 0 | 6.4 | 17.7 | 0.00 | 0.00 | 0.00 | 54 | 1017.5 |
| 20260906021138 | 28 | 0 | 6.4 | 14.5 | 0.00 | 0.00 | 0.00 | 53 | 1017.5 |
| 20260906020632 | 28 | 0 | 4.8 | 12.9 | 0.00 | 0.00 | 0.00 | 53 | 1017.4 |
| 20260906020132 | 28 | 0 | 4.8 | 12.9 | 0.00 | 0.00 | 0.00 | 53 | 1017.1 |
| 20260906020021 | 28 | 0 | 6.4 | 12.9 | 0.00 | 0.00 | 0.00 | 52 | 1017.1 |
| 20260906015926 | 28 | 0 | 6.4 | 12.9 | 0.00 | 0.00 | 0.00 | 52 | 1017.1 |
| 20260906015724 | 28 | 0 | 6.4 | 12.9 | 0.00 | 0.00 | 0.00 | 52 | 1017.1 |
| 20260906015225 | 28 | 0 | 6.4 | 12.9 | 0.00 | 0.00 | 0.00 | 52 | 1017.1 |
| 20260906014555 | 28 | 0 | 4.8 | 16.1 | 0.00 | 0.00 | 0.00 | 51 | 1017.1 |
| 20260906014029 | 29 | 0 | 6.4 | 16.1 | 0.00 | 0.00 | 0.00 | 51 | 1017.1 |
| 20260906013738 | 29 | 0 | 6.4 | 17.7 | 0.00 | 0.00 | 0.00 | 50 | 1017.1 |
| 20260906013622 | 29 | 0 | 6.4 | 17.7 | 0.00 | 0.00 | 0.00 | 50 | 1017.1 |
| 20260906013012 | 29 | 0 | 8.0 | 17.7 | 0.00 | 0.00 | 0.00 | 50 | 1017.0 |
| 20260906012515 | 30 | 0 | 6.4 | 17.7 | 0.00 | 0.00 | 0.00 | 49 | 1017.1 |
| 20260906012000 | 30 | 0 | 9.7 | 20.9 | 0.00 | 0.00 | 0.00 | 49 | 1016.9 |
| 20260906011443 | 30 | 0 | 9.7 | 20.9 | 0.00 | 0.00 | 0.00 | 48 | 1016.9 |
| 20260906011148 | 30 | 0 | 8.0 | 22.5 | 0.00 | 0.00 | 0.00 | 47 | 1016.6 |
| 20260906011024 | 30 | 0 | 8.0 | 22.5 | 0.00 | 0.00 | 0.00 | 47 | 1016.6 |
| 20260906010356 | 30 | 0 | 8.0 | 20.9 | 0.00 | 0.00 | 0.00 | 47 | 1016.5 |
| 20260906005834 | 31 | 0 | 8.0 | 20.9 | 0.00 | 0.00 | 0.00 | 46 | 1016.4 |
| 20260906005317 | 31 | 0 | 8.0 | 20.9 | 0.00 | 0.00 | 0.00 | 45 | 1016.3 |
| 20260906004801 | 31 | 0 | 8.0 | 20.9 | 0.00 | 0.00 | 0.00 | 44 | 1016.1 |
| 20260906004633 | 31 | 0 | 9.7 | 27.4 | 0.00 | 0.00 | 0.00 | 43 | 1016.0 |
| 20260906004558 | 31 | 0 | 9.7 | 27.4 | 0.00 | 0.00 | 0.00 | 43 | 1016.0 |
| 20260906003742 | 32 | 0 | 11.3 | 27.4 | 0.00 | 0.00 | 0.00 | 42 | 1016.1 |
| 20260906003244 | 32 | 0 | 12.9 | 27.4 | 0.00 | 0.00 | 0.00 | 41 | 1016.1 |
| 20260906002939 | 33 | 148 | 8.0 | 27.4 | 0.00 | 0.00 | 0.00 | 39 | 1016.0 |
| 20260906002820 | 33 | 148 | 8.0 | 27.4 | 0.00 | 0.00 | 0.00 | 39 | 1016.0 |
| 20260906002149 | 33 | 155 | 4.8 | 12.9 | 0.00 | 0.00 | 0.00 | 35 | 1015.7 |
| 20260906001647 | 34 | 146 | 4.8 | 12.9 | 0.00 | 0.00 | 0.00 | 34 | 1015.6 |
| 20260906001129 | 34 | 184 | 4.8 | 12.9 | 0.00 | 0.00 | 0.00 | 34 | 1015.8 |
| 20260906000606 | 34 | 87 | 4.8 | 20.9 | 0.00 | 0.00 | 0.00 | 33 | 1015.8 |
| 20260906000104 | 35 | 144 | 6.4 | 17.7 | 0.00 | 0.00 | 0.00 | 33 | 1015.7 |
| 20260905235541 | 35 | 153 | 8.0 | 22.5 | 0.00 | 0.00 | 0.00 | 33 | 1015.8 |
| 20260905235042 | 35 | 118 | 6.4 | 22.5 | 0.00 | 0.00 | 0.00 | 33 | 1015.8 |
| 20260905234515 | 35 | 213 | 4.8 | 17.7 | 0.00 | 0.00 | 0.00 | 33 | 1015.8 |
| 20260905234233 | 35 | 147 | 6.4 | 20.9 | 0.00 | 0.00 | 0.00 | 33 | 1015.7 |
| 20260905234115 | 35 | 147 | 6.4 | 20.9 | 0.00 | 0.00 | 0.00 | 33 | 1015.7 |
| 20260905233450 | 35 | 147 | 6.4 | 20.9 | 0.00 | 0.00 | 0.00 | 33 | 1015.8 |
| 20260905233203 | 35 | 113 | 4.8 | 14.5 | 0.00 | 0.00 | 0.00 | 33 | 1015.8 |
| 20260905233034 | 35 | 113 | 4.8 | 14.5 | 0.00 | 0.00 | 0.00 | 33 | 1015.8 |
| 20260905232402 | 35 | 171 | 6.4 | 20.9 | 0.00 | 0.00 | 0.00 | 33 | 1015.8 |
| 20260905232100 | 35 | 174 | 6.4 | 20.9 | 0.00 | 0.00 | 0.00 | 34 | 1015.6 |
| 20260905231938 | 35 | 174 | 6.4 | 20.9 | 0.00 | 0.00 | 0.00 | 34 | 1015.6 |
| 20260905231326 | 35 | 142 | 6.4 | 19.3 | 0.00 | 0.00 | 0.00 | 34 | 1015.6 |
| 20260905230803 | 35 | 142 | 6.4 | 14.5 | 0.00 | 0.00 | 0.00 | 35 | 1015.5 |
| 20260905230302 | 35 | 132 | 8.0 | 20.9 | 0.00 | 0.00 | 0.00 | 36 | 1015.4 |
| 20260905225730 | 35 | 155 | 9.7 | 22.5 | 0.00 | 0.00 | 0.00 | 36 | 1015.5 |
| 20260905225203 | 35 | 112 | 9.7 | 22.5 | 0.00 | 0.00 | 0.00 | 35 | 1015.4 |
| 20260905224634 | 35 | 113 | 9.7 | 25.7 | 0.00 | 0.00 | 0.00 | 35 | 1015.4 |
| 20260905224123 | 35 | 115 | 11.3 | 25.7 | 0.00 | 0.00 | 0.00 | 35 | 1015.4 |
| 20260905223623 | 35 | 163 | 8.0 | 24.1 | 0.00 | 0.00 | 0.00 | 34 | 1015.4 |
| 20260905223413 | 36 | 148 | 4.8 | 20.9 | 0.00 | 0.00 | 0.00 | 34 | 1015.5 |
| 20260905222615 | 36 | 102 | 8.0 | 25.7 | 0.00 | 0.00 | 0.00 | 34 | 1015.5 |
| 20260905222048 | 36 | 111 | 9.7 | 25.7 | 0.00 | 0.00 | 0.00 | 34 | 1015.4 |
| 20260905221543 | 36 | 109 | 9.7 | 19.3 | 0.00 | 0.00 | 0.00 | 34 | 1015.5 |
| 20260905221041 | 36 | 128 | 8.0 | 19.3 | 0.00 | 0.00 | 0.00 | 33 | 1015.4 |
| 20260905220539 | 36 | 106 | 8.0 | 19.3 | 0.00 | 0.00 | 0.00 | 33 | 1015.6 |
| 20260905220036 | 36 | 155 | 8.0 | 20.9 | 0.00 | 0.00 | 0.00 | 33 | 1015.6 |
| 20260905215534 | 36 | 92 | 8.0 | 20.9 | 0.00 | 0.00 | 0.00 | 32 | 1015.7 |
| 20260905215029 | 36 | 148 | 8.0 | 19.3 | 0.00 | 0.00 | 0.00 | 32 | 1015.7 |
| 20260905214510 | 36 | 150 | 8.0 | 19.3 | 0.00 | 0.00 | 0.00 | 30 | 1015.8 |
| 20260905214012 | 36 | 171 | 8.0 | 24.1 | 0.00 | 0.00 | 0.00 | 31 | 1015.9 |
| 20260905213510 | 36 | 217 | 8.0 | 24.1 | 0.00 | 0.00 | 0.00 | 32 | 1015.8 |
| 20260905213227 | 36 | 146 | 8.0 | 20.9 | 0.00 | 0.00 | 0.00 | 30 | 1015.8 |
| 20260905213057 | 36 | 146 | 8.0 | 20.9 | 0.00 | 0.00 | 0.00 | 30 | 1015.8 |
| 20260905212454 | 36 | 115 | 8.0 | 16.1 | 0.00 | 0.00 | 0.00 | 31 | 1016.0 |
| 20260905212152 | 36 | 154 | 8.0 | 22.5 | 0.00 | 0.00 | 0.00 | 32 | 1016.1 |
| 20260905212037 | 36 | 154 | 8.0 | 22.5 | 0.00 | 0.00 | 0.00 | 32 | 1016.1 |
| 20260905211428 | 36 | 160 | 8.0 | 22.5 | 0.00 | 0.00 | 0.00 | 30 | 1016.3 |
| 20260905211118 | 36 | 143 | 8.0 | 17.7 | 0.00 | 0.00 | 0.00 | 31 | 1016.4 |
| 20260905210957 | 36 | 143 | 8.0 | 17.7 | 0.00 | 0.00 | 0.00 | 31 | 1016.4 |
| 20260905210324 | 36 | 140 | 8.0 | 20.9 | 0.00 | 0.00 | 0.00 | 32 | 1016.4 |
| 20260905205821 | 36 | 159 | 8.0 | 20.9 | 0.00 | 0.00 | 0.00 | 31 | 1016.5 |
| 20260905205308 | 36 | 159 | 9.7 | 22.5 | 0.00 | 0.00 | 0.00 | 31 | 1016.6 |
| 20260905204744 | 36 | 129 | 9.7 | 22.5 | 0.00 | 0.00 | 0.00 | 30 | 1016.8 |
| 20260905204223 | 36 | 145 | 9.7 | 27.4 | 0.00 | 0.00 | 0.00 | 30 | 1016.8 |
| 20260905203929 | 36 | 172 | 11.3 | 27.4 | 0.00 | 0.00 | 0.00 | 31 | 1016.9 |
| 20260905203808 | 36 | 172 | 11.3 | 27.4 | 0.00 | 0.00 | 0.00 | 31 | 1016.9 |